Regional Weather Roundup
Issued by NWS

Home | Current Version | Previous Version | Graphics & Text | Print | Product List | Glossary On
Versions: 1 2 3 4 5 6 7 8 9 10 11 12 13 14 15 16 17 18 19 20 21 22 23 24 25 26 27 28
000
ASUS45 KPSR 300510
RWRAZ

ARIZONA HOURLY REGIONAL WEATHER ROUNDUP
NATIONAL WEATHER SERVICE PHOENIX AZ
1000 PM MST SAT APR 29 2017

NOTE: FAIR INDICATES FEW OR NO CLOUDS BELOW 12,000 FEET WITH NO
SIGNIFICANT WEATHER AND/OR OBSTRUCTIONS TO VISIBILITY.

AZZ001>003-036-300600-
NORTHWEST ARIZONA

CITY           SKY/WX    TMP DP  RH WIND       PRES   REMARKS
BULLHEAD CITY  CLEAR     72  16  12 CALM      30.00R
KINGMAN        CLEAR     48  16  27 E3        30.11R
$$

AZZ004>008-015-016-018-300600-
NORTH CENTRAL ARIZONA

CITY           SKY/WX    TMP DP  RH WIND       PRES   REMARKS
GRAND CANYON   CLEAR     31  11  43 CALM      30.18R
WILLIAMS       CLEAR     39  12  33 NW6       30.18R WCI  35
PRESCOTT       CLEAR     48  14  25 W7        30.13R
FLAGSTAFF      CLEAR     32  11  41 CALM      30.17R
PAYSON         CLEAR     48  12  23 NE9       30.13R
PAGE           CLEAR     57  17  21 N8        30.11R
$$

AZZ009>014-017-300600-
NORTHEAST ARIZONA

CITY           SKY/WX    TMP DP  RH WIND       PRES   REMARKS
WINSLOW        CLEAR     36   9  32 SW6       30.11R WCI  31
SAINT JOHNS    CLEAR     38  32  79 CALM      30.10R
WINDOW ROCK    CLEAR     32  24  72 NE3       30.10R
SHOW LOW       CLEAR     32  16  51 S3        30.15R
$$

AZZ540-542>544-546-548-300600-
GREATER PHOENIX AREA

CITY           SKY/WX    TMP DP  RH WIND       PRES   REMARKS
PHOENIX        CLEAR     73  22  14 SW7       29.92R
BUCKEYE        CLEAR     66  18  15 N7        29.96R
LUKE AFB       CLEAR     68  24  18 NW6       29.93R
DEER VALLEY    CLEAR     69  13  11 NE5       29.95R
SCOTTSDALE     CLEAR     71  22  15 CALM      29.96R
MESA-GATEWAY   CLEAR     68  21  17 S8        29.97R
$$

AZZ539-553-300600-
SOUTHWEST MARICOPA COUNTY AND PINAL COUNTY

CITY           SKY/WX    TMP DP  RH WIND       PRES   REMARKS
CASA GRANDE    NOT AVBL
GILA BEND      FAIR      70  15  12 S10       29.97R
$$

AZZ503-504-507>509-300600-
SOUTHEAST ARIZONA

CITY           SKY/WX    TMP DP  RH WIND       PRES   REMARKS
TUCSON         CLEAR     62  18  18 CALM      30.06R
DAVIS-MONTHAN  CLEAR     60  17  19 NW7       30.05R
NOGALES        CLEAR     51  12  21 E5        30.10R
SIERRA VISTA   CLEAR     51  12  20 W9        30.12R
DOUGLAS        CLEAR     48  10  21 E7        30.09R
SAFFORD        CLEAR     55  25  31 E7        30.03R
$$

AZZ532-300600-
SOUTHWEST ARIZONA

CITY           SKY/WX    TMP DP  RH WIND       PRES   REMARKS
YUMA           CLEAR     71  26  18 CALM      29.99R
$$

CAZ041-043-047-048-061-525>527-560>570-300600-
SOUTHERN CALIFORNIA

CITY           SKY/WX    TMP DP  RH WIND       PRES   REMARKS
DOWNTOWN L.A.  CLEAR     68  43  40 CALM      30.03R
L.A. AIRPORT   CLEAR     62  46  55 W9        30.04R
SAN DIEGO      CLEAR     69  39  33 N6        30.08R
BURBANK        CLEAR     69  26  20 NW5       30.05R
ONTARIO        CLEAR     63  25  23 NW6       30.05R
RIVERSIDE      CLEAR     66  28  24 S3        30.06R
PALM SPRINGS   CLEAR     76  16  10 SW8       30.04R
EL CENTRO NAS  CLEAR     63  21  20 W6        30.01R
IMPERIAL       CLEAR     67  29  24 W8        29.99R
BLYTHE         CLEAR     70  16  12 NW9       30.00R
NEEDLES        CLEAR     72  15  11 NW9       30.00R
$$

NVZ020-UTZ003-300600-
SOUTHERN NEVADA-UTAH

CITY           SKY/WX    TMP DP  RH WIND       PRES   REMARKS
LAS VEGAS      CLEAR     70  13  11 NE5       30.07R
SALT LAKE CITY PTCLDY    47  31  53 S5        30.21S
$$

NMZ009-TXZ055-300600-
NEW MEXICO-WEST TEXAS

CITY           SKY/WX    TMP DP  RH WIND       PRES   REMARKS
ALBUQUERQUE    LGT RAIN  37  35  92 S7        30.08S WCI  32
EL PASO        PTCLDY    48  32  53 N9        30.06R
$$


........................KEY........................
SKY/WX - SKY CONDITION/WEATHER
TMP    - TEMPERATURE IN FAHRENHEIT
DP     - DEW POINT IN FAHRENHEIT
RH     - RELATIVE HUMIDITY IN PERCENT
WIND   - DIRECTION AND SPEED IN MILES PER HOUR (MPH)
VRB    - VARIABLE WIND DIRECTION
PRES   - MEAN SEA LEVEL PRESSURE IN INCHES OF MERCURY
         F - FALLING PRESSURE   R - RISING PRESSURE
         S - STEADY PRESSURE
VSB    - VISIBILITY IN MILES
HX     - HEAT INDEX IN FAHRENHEIT
WCI    - WIND CHILL INDEX IN FAHRENHEIT
TC     - TEMPERATURE IN CELSIUS WHICH IS ALSO KNOWN AS
         TEMPERATURE IN CENTIGRADE
AFB    - AIR FORCE BASE
         LUKE AFB IS LUKE AIR FORCE BASE
         DAVIS-MONTHAN IS DAVIS-MONTHAN AIR FORCE BASE
NAS    - NAVAL AIR STATION
         EL CENTRO NAS IS EL CENTRO NAVAL AIR STATION
N/A    - NOT AVAILABLE





USA.gov is the U.S. government's official web portal to all federal, state and local government web resources and services.